Regional Weather Roundup
Issued by NWS

Home | Current Version | Previous Version | Graphics & Text | Print | Product List | Glossary On
Versions: 1 2 3 4 5 6 7 8 9 10 11 12 13 14 15 16 17 18 19 20 21 22 23 24 25 26 27 28 29 30 31 32 33 34 35 36 37 38 39 40 41 42 43 44 45 46 47 48 49 50
000
ASUS45 KPSR 241610
RWRAZ

ARIZONA HOURLY REGIONAL WEATHER ROUNDUP
NATIONAL WEATHER SERVICE PHOENIX AZ
900 AM MST SUN JUL 24 2016

NOTE: FAIR INDICATES FEW OR NO CLOUDS BELOW 12,000 FEET WITH NO
SIGNIFICANT WEATHER AND/OR OBSTRUCTIONS TO VISIBILITY.

AZZ001>003-036-241700-
NORTHWEST ARIZONA

CITY           SKY/WX    TMP DP  RH WIND       PRES   REMARKS
BULLHEAD CITY  SUNNY     99  57  25 S16G22    29.84R
KINGMAN        SUNNY     90  53  28 SW13      30.05R
$$

AZZ004>008-015-016-018-241700-
NORTH CENTRAL ARIZONA

CITY           SKY/WX    TMP DP  RH WIND       PRES   REMARKS
GRAND CANYON   SUNNY     82  48  30 SW7       30.30S
WILLIAMS       SUNNY     82  45  26 W13       30.38S
PRESCOTT       SUNNY     83  54  36 S12       30.21R
FLAGSTAFF      SUNNY     76  52  43 S13       30.33R
PAYSON         SUNNY     81  52  36 VRB3      30.25S
PAGE           SUNNY     91  40  16 N3        30.06S
$$

AZZ009>014-017-241700-
NORTHEAST ARIZONA

CITY           SKY/WX    TMP DP  RH WIND       PRES   REMARKS
WINSLOW        PTSUNNY   82  47  29 S6        30.16F
SAINT JOHNS    MOSUNNY   78  54  43 NW6       30.21S
WINDOW ROCK    MOSUNNY   79  47  32 N3        30.30S
SHOW LOW       MOSUNNY   75  48  38 S15       30.31R
$$

AZZ023-241700-
GREATER PHOENIX AREA

CITY           SKY/WX    TMP DP  RH WIND       PRES   REMARKS
PHOENIX        PTSUNNY   95  57  27 VRB6      29.94R
BUCKEYE        SUNNY     93  61  33 SW12G17   29.97S
GLENDALE       MOSUNNY   95  59  30 SW14      29.96R
LUKE AFB       SUNNY     94  59  31 SW14      29.95R
DEER VALLEY    SUNNY     93  57  29 W13G18    29.97R
SCOTTSDALE     SUNNY     93  55  27 N3        29.99S
MESA-FALCON    MOSUNNY  N/A N/A N/A MISG      29.95S
MESA-GATEWAY   MOSUNNY   90  63  40 MISG      29.99R
CHANDLER       SUNNY     93  61  33 S15       29.97R
$$

AZZ027-028-241700-
SOUTHWEST MARICOPA COUNTY AND PINAL COUNTY

CITY           SKY/WX    TMP DP  RH WIND       PRES   REMARKS
CASA GRANDE    MOSUNNY   91  61  35 SW10      29.99S
GILA BEND      FAIR      96  60  29 S8        29.92S
$$

AZZ503-504-507>509-241700-
SOUTHEAST ARIZONA

CITY           SKY/WX    TMP DP  RH WIND       PRES   REMARKS
TUCSON         MOSUNNY   87  62  43 NE6       30.06F
DAVIS-MONTHAN  MOSUNNY   86  61  43 NE5       30.05F
RYAN FIELD     SUNNY     90  61  37 E6        30.03F
NOGALES        MOSUNNY   78  66  66 SE9       30.14R
SIERRA VISTA   SUNNY     83  58  42 NW12      30.19S
DOUGLAS        SUNNY     81  62  52 VRB3      30.14S
SAFFORD        SUNNY     91  56  30 NW21      30.02R
$$

AZZ020-021-025-026-031-241700-
SOUTHWEST ARIZONA

CITY           SKY/WX    TMP DP  RH WIND       PRES   REMARKS
YUMA           PTSUNNY   94  69  44 S26       29.86R
$$

CAZ031-033-041-043-047-048-061-241700-
SOUTHERN CALIFORNIA

CITY           SKY/WX    TMP DP  RH WIND       PRES   REMARKS
DOWNTOWN L.A.  SUNNY     78  64  61 CALM      29.88R
L.A. AIRPORT   MOSUNNY   75  66  73 S7        29.89R
SAN DIEGO      PTSUNNY   67  64  90 S12       29.94R
BURBANK        SUNNY     80  51  36 W5        29.90R
ONTARIO        MOSUNNY   81  55  40 VRB3      29.91R
RIVERSIDE      SUNNY     81  58  45 CALM      29.90R
PALM SPRINGS   SUNNY     91  71  51 E16       29.90R
EL CENTRO NAS  SUNNY     93  70  46 SE16      29.84R
IMPERIAL       PTSUNNY   95  72  47 SE23      29.82R HAZE    HX 103
BLYTHE         PTSUNNY   93  71  48 S24       29.88R HX 100
NEEDLES        SUNNY     99  56  23 SW23G35   29.87R
$$

NVZ020-UTZ003-241700-
SOUTHERN NEVADA-UTAH

CITY           SKY/WX    TMP DP  RH WIND       PRES   REMARKS
LAS VEGAS      SUNNY     96  41  15 VRB3      29.85R
SALT LAKE CITY MOSUNNY   80  37  21 CALM      30.12S
$$

NMZ009-TXZ055-241700-
NEW MEXICO-WEST TEXAS

CITY           SKY/WX    TMP DP  RH WIND       PRES   REMARKS
ALBUQUERQUE    MOSUNNY   84  51  31 N7        30.18S
EL PASO        MOSUNNY   90  47  22 CALM      30.04R
$$


........................KEY........................
SKY/WX - SKY CONDITION/WEATHER
TMP    - TEMPERATURE IN FAHRENHEIT
DP     - DEW POINT IN FAHRENHEIT
RH     - RELATIVE HUMIDITY IN PERCENT
WIND   - DIRECTION AND SPEED IN MILES PER HOUR (MPH)
VRB    - VARIABLE WIND DIRECTION
PRES   - MEAN SEA LEVEL PRESSURE IN INCHES OF MERCURY
         F - FALLING PRESSURE   R - RISING PRESSURE
         S - STEADY PRESSURE
VSB    - VISIBILITY IN MILES
HX     - HEAT INDEX IN FAHRENHEIT
WCI    - WIND CHILL INDEX IN FAHRENHEIT
TC     - TEMPERATURE IN CELSIUS WHICH IS ALSO KNOWN AS
         TEMPERATURE IN CENTIGRADE
AFB    - AIR FORCE BASE
         LUKE AFB IS LUKE AIR FORCE BASE
         DAVIS-MONTHAN IS DAVIS-MONTHAN AIR FORCE BASE
NAS    - NAVAL AIR STATION
         EL CENTRO NAS IS EL CENTRO NAVAL AIR STATION
N/A    - NOT AVAILABLE




USA.gov is the U.S. government's official web portal to all federal, state and local government web resources and services.